Overview Statistics Trail Chart Weather Telemetry Raw packets
 

This is the latest recevied weather packets stored in our database for station/object 4S6DRJ-13. If no packets are shown the sender has not sent any weather packets the latest 10 day(s).

<< 234 235 236 237 238 239 240 >>
Time Temp. Humidity Pressure Rain* Wind** Luminosity Snow
1788121565 27.78° C 84% 1009.4 hPa 0 mm 0 m/s 0 W/m² -
1788121504 27.78° C 84% 1009.2 hPa 0 mm 1.34 m/s, 295° 0 W/m² -
1788121443 27.78° C 84% 1009.4 hPa 0 mm 0.45 m/s, 204° 0 W/m² -
1788121382 27.78° C 84% 1009.4 hPa 0 mm 1.34 m/s, 243° 0 W/m² -
1788121321 27.78° C 84% 1009.5 hPa 0 mm 0.89 m/s, 318° 0 W/m² -
1788121260 27.78° C 84% 1009.3 hPa 0 mm 0.89 m/s, 213° 0 W/m² -
1788121199 27.78° C 84% 1009.2 hPa 0 mm 0.45 m/s, 292° 0 W/m² -
1788121138 27.78° C 84% 1009.4 hPa 0 mm 0.45 m/s, 209° 0 W/m² -
1788121077 27.78° C 84% 1009.3 hPa 0 mm 0 m/s 0 W/m² -
1788121016 27.78° C 84% 1009.3 hPa 0 mm 1.34 m/s, 315° 0 W/m² -
1788120955 27.78° C 84% 1009.2 hPa 0 mm 0.45 m/s, 230° 0 W/m² -
1788120894 27.78° C 84% 1009.2 hPa 0 mm 0.45 m/s, 162° 0 W/m² -
1788120833 27.78° C 84% 1009.3 hPa 0 mm 0.89 m/s, 256° 0 W/m² -
1788120772 27.78° C 84% 1009.3 hPa 0 mm 0.45 m/s, 244° 0 W/m² -
1788120711 27.78° C 84% 1009.3 hPa 0 mm 0.45 m/s, 271° 0 W/m² -
1788120650 27.78° C 84% 1009.3 hPa 0 mm 0.89 m/s, 225° 0 W/m² -
1788120589 27.78° C 84% 1009.3 hPa 0 mm 0.45 m/s, 223° 0 W/m² -
1788120528 27.78° C 84% 1009.5 hPa 0 mm 0 m/s 0 W/m² -
1788120467 27.78° C 84% 1009.3 hPa 0 mm 0.89 m/s, 216° 0 W/m² -
1788120406 27.78° C 84% 1009.5 hPa 0 mm 0.45 m/s, 250° 0 W/m² -
1788120345 27.78° C 84% 1009.5 hPa 0 mm 0.89 m/s, 305° 0 W/m² -
1788120284 27.78° C 84% 1009.4 hPa 0 mm 0.89 m/s, 89° 0 W/m² -
1788120223 27.78° C 84% 1009.5 hPa 0 mm 1.34 m/s, 253° 0 W/m² -
1788120162 27.78° C 84% 1009.5 hPa 0 mm 1.34 m/s, 258° 0 W/m² -
1788120104 27.78° C 84% 1009.6 hPa 0 mm 0 m/s 0 W/m² -

* Rain latest hour (hover to see other rain measurements)
** Current wind speed in m/s (hover to see current wind gust speed)